Location: Corte Bragagnani
(45.3000°N, 11.1000°E)
Time: 07:50:49
(UTC+00:00)

BREEZE-M DEB (TANK) - Pass Details

Date: 09 April 2020
Orbit: 320 x 11934 km, 49.7° (Epoch: 02 June)

Event Time Altitude Azimuth Distance (km) Brightness Sun altitude
Rises 18:37:11 0° 290° (WNW) 5,889 11.3 -8.1°
Reaches altitude 10° 18:42:35 10° 292° (WNW) 3,531 9.2 -9.0°
Maximum altitude 18:49:29 74° 17° (NNE) 624 3.7 -10.1°
Enters shadow 18:51:46 16° 103° (ESE) 1,232 4.6 -10.5°
